Location: Veytaux
(46.4185°N, 6.9320°E)
Time: 08:06:55
(UTC+00:00)

Cosmos 2237 Rocket - Pass Details

Date: 27 May 2022
Orbit: 834 x 851 km, 71.0° (Epoch: 01 July)

Event Time Altitude Azimuth Distance (km) Brightness Sun altitude
Exits shadow 02:38:51 - 270° (W) 3,287 4.9 -9.9°
Reaches altitude 10° 02:42:15 10° 293° (WNW) 2,479 4.4 -9.5°
Maximum altitude 02:45:05 14° 323° (NW) 2,220 4.5 -9.2°
Drops below altitude 10° 02:47:56 10° 354° (N) 2,487 5.2 -8.8°
Sets 02:51:48 0° 19° (NNE) 3,428 6.6 -8.3°
